• In Moldova, Republic
  • List of Countries
  • For 7 days
  • Water Temperature
  • Satellite Maps
  • Weather Map
  • Weather Widgets
  • user-avatar
    Login

    Hourly Weather Mingachevir

    Today, 30 March, Thursday

    Time Temperature Precipitation Wind Pressure Humidity
    00:00 +7°C° 0 mm 2 mps 758 mmHg 72%
    01:00 +7°C° 0 mm 2 mps 758 mmHg 74%
    02:00 +6°C° 0 mm 2 mps 758 mmHg 77%
    03:00 +7°C° 0 mm 1 mps 758 mmHg 78%
    04:00 +7°C° 0 mm 1 mps 758 mmHg 79%
    05:00 +7°C° 0 mm 1 mps 759 mmHg 80%
    06:00 +6°C° 0 mm 1 mps 759 mmHg 80%
    07:00 +9°C° 0 mm 1 mps 758 mmHg 72%
    08:00 +10°C° 0 mm 2 mps 758 mmHg 64%
    09:00 +13°C° 0 mm 2 mps 757 mmHg 56%
    10:00 +14°C° 0 mm 2 mps 757 mmHg 52%
    11:00 +15°C° 0 mm 2 mps 756 mmHg 49%
    12:00 +16°C° 0 mm 2 mps 755 mmHg 45%
    13:00 +18°C° 0 mm 1 mps 754 mmHg 44%
    14:00 +19°C° 0 mm 1 mps 754 mmHg 42%
    15:00 +19°C° 0 mm 1 mps 753 mmHg 40%
    16:00 +18°C° 0 mm 1 mps 753 mmHg 45%
    17:00 +16°C° 0 mm 1 mps 753 mmHg 50%
    18:00 +14°C° 0 mm 1 mps 753 mmHg 56%
    19:00 +13°C° 0 mm 1 mps 753 mmHg 57%
    20:00 +13°C° 0 mm 2 mps 753 mmHg 59%
    21:00 +12°C° 0 mm 2 mps 753 mmHg 61%
    22:00 +12°C° 0 mm 2 mps 753 mmHg 59%
    23:00 +12°C° 0 mm 2 mps 753 mmHg 57%

    Tomorrow, 31 March, Friday

    Time Temperature Precipitation Wind Pressure Humidity
    00:00 +10°C° 0 mm 2 mps 754 mmHg 55%
    01:00 +10°C° 0 mm 3 mps 754 mmHg 54%
    02:00 +10°C° 0 mm 3 mps 754 mmHg 52%
    03:00 +10°C° 0 mm 3 mps 754 mmHg 50%
    04:00 +9°C° 0 mm 3 mps 754 mmHg 50%
    05:00 +9°C° 0 mm 2 mps 754 mmHg 50%
    06:00 +9°C° 0 mm 2 mps 754 mmHg 50%
    07:00 +13°C° 0 mm 2 mps 755 mmHg 45%
    08:00 +15°C° 0 mm 2 mps 755 mmHg 40%
    09:00 +17°C° 0 mm 2 mps 755 mmHg 35%
    10:00 +18°C° 0 mm 2 mps 755 mmHg 33%
    11:00 +19°C° 0 mm 2 mps 755 mmHg 31%
    12:00 +20°C° 0 mm 2 mps 755 mmHg 29%
    13:00 +20°C° 0 mm 3 mps 755 mmHg 30%
    14:00 +20°C° 0 mm 4 mps 755 mmHg 31%
    15:00 +21°C° 0 mm 5 mps 755 mmHg 33%
    16:00 +19°C° 0.1 mm 6 mps 755 mmHg 41%
    17:00 +16°C° 0.1 mm 6 mps 756 mmHg 50%
    18:00 +14°C° 0.1 mm 7 mps 756 mmHg 58%
    19:00 +11°C° 0.1 mm 7 mps 757 mmHg 62%
    20:00 +9°C° 0.1 mm 7 mps 758 mmHg 66%
    21:00 +8°C° 0.1 mm 7 mps 758 mmHg 70%
    22:00 +6°C° 0.3 mm 7 mps 759 mmHg 72%
    23:00 +5°C° 0.3 mm 7 mps 759 mmHg 74%

    Day after tomorrow, 1 April, Saturday

    Time Temperature Precipitation Wind Pressure Humidity
    00:00 +5°C° 0.3 mm 6 mps 759 mmHg 76%
    01:00 +4°C° 0.4 mm 6 mps 759 mmHg 77%
    02:00 +5°C° 0.4 mm 5 mps 759 mmHg 78%
    03:00 +5°C° 0.4 mm 5 mps 759 mmHg 79%
    04:00 +4°C° 0.2 mm 4 mps 759 mmHg 79%
    05:00 +4°C° 0.2 mm 4 mps 759 mmHg 79%
    06:00 +4°C° 0.2 mm 3 mps 759 mmHg 79%
    07:00 +5°C° 0.1 mm 3 mps 759 mmHg 75%
    08:00 +7°C° 0.1 mm 3 mps 759 mmHg 71%
    09:00 +7°C° 0.1 mm 3 mps 759 mmHg 68%
    10:00 +8°C° 0 mm 3 mps 758 mmHg 64%
    11:00 +9°C° 0 mm 2 mps 757 mmHg 61%
    12:00 +10°C° 0 mm 2 mps 756 mmHg 58%
    13:00 +12°C° 0 mm 2 mps 756 mmHg 57%
    14:00 +12°C° 0 mm 2 mps 755 mmHg 56%
    15:00 +13°C° 0 mm 1 mps 754 mmHg 56%
    16:00 +12°C° 0.1 mm 1 mps 755 mmHg 60%
    17:00 +10°C° 0.1 mm 2 mps 755 mmHg 63%
    18:00 +10°C° 0.1 mm 2 mps 755 mmHg 67%
    19:00 +9°C° 0 mm 2 mps 755 mmHg 71%
    20:00 +9°C° 0 mm 2 mps 756 mmHg 74%
    21:00 +8°C° 0 mm 2 mps 756 mmHg 78%
    22:00 +7°C° 0 mm 2 mps 756 mmHg 81%
    23:00 +7°C° 0 mm 2 mps 756 mmHg 84%

    2 April, Sunday

    Time Temperature Precipitation Wind Pressure Humidity
    00:00 +6°C° 0 mm 2 mps 756 mmHg 87%
    01:00 +7°C° 0 mm 1 mps 756 mmHg 90%
    02:00 +6°C° 0 mm 1 mps 756 mmHg 93%
    03:00 +6°C° 0 mm 1 mps 756 mmHg 95%
    04:00 +6°C° 0 mm 1 mps 757 mmHg 95%
    05:00 +6°C° 0 mm 1 mps 757 mmHg 95%
    06:00 +5°C° 0 mm 0 mps 757 mmHg 95%
    07:00 +7°C° 0 mm 1 mps 758 mmHg 88%
    08:00 +8°C° 0 mm 2 mps 758 mmHg 80%
    09:00 +10°C° 0 mm 2 mps 759 mmHg 73%
    10:00 +10°C° 0.2 mm 3 mps 759 mmHg 71%
    11:00 +11°C° 0.2 mm 3 mps 759 mmHg 69%
    12:00 +11°C° 0.2 mm 4 mps 759 mmHg 67%
    13:00 +12°C° 0.2 mm 4 mps 759 mmHg 66%
    14:00 +12°C° 0.2 mm 4 mps 758 mmHg 65%
    15:00 +12°C° 0.2 mm 4 mps 758 mmHg 63%
    16:00 +11°C° 0.1 mm 4 mps 759 mmHg 66%
    17:00 +11°C° 0.1 mm 4 mps 759 mmHg 68%
    18:00 +10°C° 0.1 mm 4 mps 760 mmHg 71%
    19:00 +8°C° 0 mm 4 mps 760 mmHg 74%
    20:00 +7°C° 0 mm 4 mps 761 mmHg 78%
    21:00 +7°C° 0 mm 4 mps 761 mmHg 81%
    22:00 +7°C° 0 mm 3 mps 761 mmHg 83%
    23:00 +7°C° 0 mm 3 mps 761 mmHg 85%

    3 April, Monday

    Time Temperature Precipitation Wind Pressure Humidity
    00:00 +6°C° 0 mm 2 mps 761 mmHg 87%
    01:00 +6°C° 0 mm 2 mps 761 mmHg 88%
    02:00 +6°C° 0 mm 1 mps 760 mmHg 90%
    03:00 +5°C° 0 mm 1 mps 760 mmHg 92%
    04:00 +5°C° 0 mm 1 mps 760 mmHg 92%
    05:00 +5°C° 0 mm 1 mps 760 mmHg 92%
    06:00 +5°C° 0 mm 1 mps 760 mmHg 92%
    07:00 +7°C° 0 mm 1 mps 760 mmHg 84%
    08:00 +9°C° 0 mm 1 mps 759 mmHg 75%
    09:00 +11°C° 0 mm 1 mps 759 mmHg 66%
    10:00 +12°C° 0 mm 1 mps 759 mmHg 61%
    11:00 +14°C° 0 mm 1 mps 758 mmHg 55%
    12:00 +15°C° 0 mm 1 mps 757 mmHg 50%
    13:00 +15°C° 0 mm 1 mps 757 mmHg 48%
    14:00 +16°C° 0 mm 1 mps 756 mmHg 45%
    15:00 +18°C° 0 mm 1 mps 756 mmHg 43%
    16:00 +16°C° 0 mm 2 mps 756 mmHg 48%
    17:00 +14°C° 0 mm 2 mps 756 mmHg 53%
    18:00 +13°C° 0 mm 2 mps 757 mmHg 58%
    19:00 +12°C° 0 mm 2 mps 757 mmHg 62%
    20:00 +10°C° 0 mm 2 mps 757 mmHg 66%
    21:00 +9°C° 0 mm 2 mps 758 mmHg 69%
    22:00 +8°C° 0 mm 2 mps 758 mmHg 72%
    23:00 +8°C° 0 mm 2 mps 758 mmHg 75%

    4 April, Tuesday

    Time Temperature Precipitation Wind Pressure Humidity
    00:00 +7°C° 0 mm 2 mps 758 mmHg 78%
    01:00 +7°C° 0 mm 2 mps 758 mmHg 80%
    02:00 +7°C° 0 mm 1 mps 757 mmHg 81%
    03:00 +7°C° 0 mm 1 mps 757 mmHg 82%
    04:00 +7°C° 0 mm 1 mps 757 mmHg 81%
    05:00 +7°C° 0 mm 1 mps 757 mmHg 79%
    06:00 +6°C° 0 mm 1 mps 757 mmHg 77%
    07:00 +9°C° 0 mm 1 mps 757 mmHg 68%
    08:00 +12°C° 0 mm 1 mps 757 mmHg 58%
    09:00 +14°C° 0 mm 1 mps 756 mmHg 49%
    10:00 +16°C° 0 mm 1 mps 756 mmHg 43%
    11:00 +19°C° 0 mm 1 mps 755 mmHg 38%
    12:00 +20°C° 0 mm 1 mps 755 mmHg 32%
    13:00 +21°C° 0 mm 1 mps 754 mmHg 31%
    14:00 +22°C° 0 mm 1 mps 754 mmHg 29%
    15:00 +22°C° 0 mm 1 mps 753 mmHg 27%
    16:00 +20°C° 0 mm 1 mps 754 mmHg 33%
    17:00 +19°C° 0 mm 1 mps 754 mmHg 38%
    18:00 +16°C° 0 mm 1 mps 754 mmHg 44%
    19:00 +15°C° 0 mm 1 mps 755 mmHg 45%
    20:00 +14°C° 0 mm 2 mps 755 mmHg 47%
    21:00 +13°C° 0 mm 2 mps 756 mmHg 49%
    22:00 +13°C° 0 mm 2 mps 756 mmHg 51%
    23:00 +12°C° 0 mm 2 mps 756 mmHg 53%
    Show more